Moore, Oklahoma, United States
Lat: 35.34N, Lon: 97.49W
Wx Zone: OKZ029
Local Info
Past Weather Observations for Thursday, November 20, 2014

NOTE: This archive is for the closest National Weather Service station to Moore. Information may differ from the station used for current weather conditions.

Click here for Long-term Archive

Time Weather Temperature Dewpoint Humidity Pressure Winds Precip Visibility
23:52
Partly Cloudy
45°F / 7°C 39°F / 4°C 81% 30.06 in
(1018 mb)
E 6.9 mph
(E 11 kph)
- 10SM
22:52
Partly Cloudy
46°F / 8°C 37°F / 3°C 71% 30.06 in
(1018 mb)
E 9.2 mph
(E 15 kph)
- 10SM
21:52
Partly Cloudy
46°F / 8°C 36°F / 2°C 66% 30.06 in
(1018 mb)
ENE 9.2 mph
(ENE 15 kph)
- 10SM
20:52
Partly Cloudy
48°F / 9°C 36°F / 2°C 62% 30.06 in
(1018 mb)
ENE 10.4 mph
(ENE 17 kph)
- 10SM
19:52
Partly Cloudy
50°F / 10°C 37°F / 3°C 62% 30.04 in
(1017 mb)
ENE 9.2 mph
(ENE 15 kph)
- 10SM
18:52
Partly Cloudy
52°F / 11°C 36°F / 2°C 54% 30.04 in
(1017 mb)
ENE 10.4 mph
(ENE 17 kph)
- 10SM
17:52
Partly Cloudy
54°F / 12°C 36°F / 2°C 51% 30.01 in
(1016 mb)
E 10.4 mph
(E 17 kph)
- 10SM
16:52
Partly Cloudy
59°F / 15°C 36°F / 2°C 42% 30.01 in
(1016 mb)
E 8.1 mph
(E 13 kph)
- 10SM
15:52
Partly Cloudy
63°F / 17°C 36°F / 2°C 37% 30.01 in
(1016 mb)
SE 4.6 mph
(SE 7 kph)
- 10SM
14:52
Partly Cloudy
63°F / 17°C 36°F / 2°C 37% 30.01 in
(1016 mb)
S 5.8 mph
(S 9 kph)
- 10SM
13:52
Mostly Cloudy
59°F / 15°C 36°F / 2°C 42% 30.01 in
(1016 mb)
SSE 3.5 mph
(SSE 6 kph)
- 10SM
12:52
Mostly Cloudy
57°F / 14°C 36°F / 2°C 44% 30.04 in
(1017 mb)
E 4.6 mph
(E 7 kph)
- 10SM
11:52
Mostly Cloudy
54°F / 12°C 34°F / 1°C 47% 30.06 in
(1018 mb)
SSE 6.9 mph
(SSE 11 kph)
- 10SM
10:52
Partly Cloudy
52°F / 11°C 34°F / 1°C 50% 30.09 in
(1019 mb)
SE 9.2 mph
(SE 15 kph)
- 10SM
09:52
Partly Cloudy
48°F / 9°C 30°F / -1°C 50% 30.09 in
(1019 mb)
ESE 11.5 mph
(ESE 19 kph)
- 10SM
08:52
Partly Cloudy
45°F / 7°C 28°F / -2°C 53% 30.09 in
(1019 mb)
E 10.4 mph
(E 17 kph)
- 10SM
07:52
Partly Cloudy
37°F / 3°C 27°F / -3°C 65% 30.09 in
(1019 mb)
E 8.1 mph
(E 13 kph)
- 10SM
06:52
Partly Cloudy
34°F / 1°C 25°F / -4°C 70% 30.09 in
(1019 mb)
E 6.9 mph
(E 11 kph)
- 10SM
05:52
Partly Cloudy
34°F / 1°C 25°F / -4°C 70% 30.09 in
(1019 mb)
E 6.9 mph
(E 11 kph)
- 10SM
04:52
Partly Cloudy
34°F / 1°C 25°F / -4°C 70% 30.09 in
(1019 mb)
ESE 5.8 mph
(ESE 9 kph)
- 10SM
03:52
Partly Cloudy
37°F / 3°C 25°F / -4°C 60% 30.12 in
(1020 mb)
E 8.1 mph
(E 13 kph)
- 10SM
02:52
Partly Cloudy
39°F / 4°C 25°F / -4°C 56% 30.12 in
(1020 mb)
ENE 11.5 mph
(ENE 19 kph)
- 10SM
01:52
Partly Cloudy
41°F / 5°C 25°F / -4°C 53% 30.12 in
(1020 mb)
E 12.7 mph
(E 20 kph)
- 10SM
00:52
Partly Cloudy
39°F / 4°C 27°F / -3°C 61% 30.15 in
(1021 mb)
ENE 10.4 mph
(ENE 17 kph)
- 10SM
Time Weather Temperature Dewpoint Humidity Pressure Winds Precip Visibility


Weather for websites

WeatherForYou.com, LLC is not responsible for any damages or problems caused by this service. Current weather conditions are obtained from the closest station including government and personal stations which may have varying degrees of accuracy. Weather forecasts are derived from the NOAA NDFD. Like all things, this site belongs to Jesus Christ... He just trusts me to maintain it. If you have any questions or comments email webmaster@weatherforyou.com

Copyright © 2014, WeatherForYou.com LLC. All rights reserved.